This is the latest recevied weather packets stored in our database for station/object KO6SRA-13. If no packets are shown the sender has not sent any weather packets the latest 10 day(s).
| Time | Temp. | Humidity | Pressure | Rain* | Wind** | Luminosity | Snow |
|---|---|---|---|---|---|---|---|
| 1787713728 | 17.78° C | 82% | 1017.6 hPa | 0 mm | - | 0 W/m² | - |
| 1787713428 | 17.78° C | 81% | 1017.7 hPa | 0 mm | - | 0 W/m² | - |
| 1787713125 | 17.78° C | 81% | 1017.5 hPa | 0 mm | - | 0 W/m² | - |
| 1787712820 | 17.78° C | 81% | 1017.5 hPa | 0 mm | - | 0 W/m² | - |
| 1787712516 | 17.78° C | 81% | 1017.4 hPa | 0 mm | - | 0 W/m² | - |
| 1787712216 | 17.78° C | 81% | 1017.3 hPa | 0 mm | - | 0 W/m² | - |
| 1787711916 | 17.78° C | 81% | 1017.1 hPa | 0 mm | - | 1 W/m² | - |
| 1787711611 | 18.33° C | 80% | 1017.1 hPa | 0 mm | - | 3 W/m² | - |
| 1787711306 | 18.33° C | 79% | 1017.2 hPa | 0 mm | - | 6 W/m² | - |
| 1787711002 | 18.33° C | 79% | 1017.3 hPa | 0 mm | - | 10 W/m² | - |
| 1787710699 | 18.89° C | 78% | 1017.2 hPa | 0 mm | - | 13 W/m² | - |
| 1787710399 | 18.89° C | 78% | 1016.9 hPa | 0 mm | - | 17 W/m² | - |
| 1787710095 | 19.44° C | 77% | 1017.1 hPa | 0 mm | - | 20 W/m² | - |
| 1787709795 | 20° C | 75% | 1016.9 hPa | 0 mm | - | 23 W/m² | - |
| 1787709490 | 20° C | 74% | 1017 hPa | 0 mm | - | 26 W/m² | - |
| 1787709187 | 20° C | 73% | 1017.1 hPa | 0 mm | - | 30 W/m² | - |
| 1787708883 | 20° C | 75% | 1017 hPa | 0 mm | - | 46 W/m² | - |
| 1787708583 | 19.44° C | 76% | 1016.9 hPa | 0 mm | - | 39 W/m² | - |
| 1787708277 | 19.44° C | 77% | 1017 hPa | 0 mm | - | 39 W/m² | - |
| 1787707973 | 18.89° C | 77% | 1017 hPa | 0 mm | - | 61 W/m² | - |
| 1787707668 | 18.89° C | 78% | 1017 hPa | 0 mm | - | 43 W/m² | - |
| 1787707364 | 19.44° C | 77% | 1017.1 hPa | 0 mm | - | 46 W/m² | - |
| 1787707059 | 19.44° C | 76% | 1017 hPa | 0 mm | - | 49 W/m² | - |
| 1787706759 | 20° C | 75% | 1017 hPa | 0 mm | - | 92 W/m² | - |
| 1787706455 | 20° C | 76% | 1017.1 hPa | 0 mm | - | 158 W/m² | - |
* Rain latest hour (hover to see other rain measurements)
** Current wind speed in m/s (hover to see current wind gust speed)